Date String (YYYY-MM-DD hh:mm:ss) UTC,Instrument flags,Ambient pressure (hPa),Sample flow (lpm),Bypass flow (lpm),Sample temperature (°C),Ambient temperature (°C),ASC tube jacket temperature (°C),LED temperature (°C),Box temperature (°C),Sample RH (%),Span deviation,Mass concentration (μg/m³),Mass concentration (μg/m³),Mass concentration (μg/m³)
DateTimeUTC,F1_M11,P_M11,Q1_M11,Q2_M11,T1_M11,T2_M11,T3_M11,T4_M11,T5_M11,U1_M11,ZSPAN_M11,X0_M11,X2_M11,X1_M11
2021-09-02 08:00:00,,0824.1,5.01,0.00,29.4,28.2,00.0,38.6,31.2,31.8,0001.5,0019.80,0013.96,0013.22
2021-09-02 08:01:00,,0824.1,5.00,0.00,29.4,28.3,00.0,38.6,31.2,31.8,0001.6,0019.37,0013.89,0013.17
2021-09-02 08:02:00,,0824.1,5.00,0.00,29.5,28.4,00.0,38.6,31.2,31.6,0001.8,0018.73,0013.87,0013.13
2021-09-02 08:03:00,,0824.1,5.01,0.00,29.5,28.4,00.0,38.6,31.3,31.6,0001.7,0018.24,0013.86,0013.09
2021-09-02 08:04:00,,0824.1,5.00,0.00,29.5,28.5,00.0,38.6,31.3,31.6,0001.8,0018.20,0013.81,0013.06
2021-09-02 08:05:00,,0824.1,4.99,0.00,29.5,28.5,00.0,38.6,31.3,31.5,0001.9,0018.04,0013.75,0013.02
2021-09-02 08:06:00,,0824.1,5.01,0.00,29.5,28.6,00.0,38.6,31.3,31.5,0002.0,0017.74,0013.73,0013.00
2021-09-02 08:07:00,,0824.1,5.00,0.00,29.6,28.6,00.0,38.6,31.4,31.4,0002.1,0017.78,0013.73,0012.98
2021-09-02 08:08:00,,0824.1,5.00,0.00,29.6,28.7,00.0,38.6,31.4,31.4,0002.2,0017.87,0013.75,0012.98
2021-09-02 08:09:00,,0824.1,4.99,0.00,29.6,28.7,00.0,38.7,31.4,31.3,0001.9,0017.95,0013.77,0012.96
2021-09-02 08:10:00,,0824.1,5.01,0.00,29.6,28.8,00.0,38.7,31.4,31.3,0001.9,0017.96,0013.78,0012.96
2021-09-02 08:11:00,,0824.1,4.99,0.00,29.7,28.8,00.0,38.7,31.4,31.3,0001.8,0017.93,0013.77,0012.96
2021-09-02 08:12:00,,0824.1,5.02,0.00,29.7,28.8,00.0,38.7,31.4,31.4,0001.9,0018.08,0013.81,0012.98
2021-09-02 08:13:00,,0824.1,4.98,0.00,29.7,28.9,00.0,38.7,31.5,31.3,0002.0,0018.19,0013.87,0013.00
2021-09-02 08:14:00,,0824.2,5.01,0.00,29.7,28.9,00.0,38.7,31.5,31.3,0002.1,0018.38,0013.92,0013.03
2021-09-02 08:15:00,,0824.1,4.99,0.00,29.7,28.9,00.0,38.7,31.5,31.2,0002.2,0018.36,0013.93,0013.04
2021-09-02 08:16:00,,0824.1,4.99,0.00,29.7,28.9,00.0,38.8,31.5,31.2,0002.2,0018.53,0014.03,0013.10
2021-09-02 08:17:00,,0824.1,5.01,0.00,29.8,29.0,00.0,38.8,31.5,31.2,0002.1,0018.66,0014.07,0013.14
2021-09-02 08:18:00,,0824.1,5.00,0.00,29.8,28.4,00.0,38.8,31.4,31.2,0002.1,0018.67,0014.10,0013.18
2021-09-02 08:19:00,,0824.1,4.99,0.00,29.6,26.7,00.0,38.7,30.9,31.4,0002.1,0018.66,0014.09,0013.19
2021-09-02 08:20:00,,0824.1,5.00,0.00,29.5,26.2,00.0,38.7,30.8,31.6,0002.2,0019.23,0014.07,0013.21
2021-09-02 08:21:00,,0824.1,5.01,0.00,29.4,26.5,00.0,38.7,30.8,31.8,0002.2,0019.29,0014.07,0013.23
2021-09-02 08:22:00,,0824.0,5.00,0.00,29.4,26.9,00.0,38.7,30.9,31.9,0002.4,0019.38,0014.12,0013.26
2021-09-02 08:23:00,,0824.1,4.99,0.00,29.4,27.3,00.0,38.6,31.0,31.9,0002.5,0019.37,0014.15,0013.28
2021-09-02 08:24:00,,0824.1,5.02,0.00,29.4,27.6,00.0,38.6,31.1,32.0,0002.5,0019.45,0014.16,0013.33
2021-09-02 08:25:00,,0824.1,4.99,0.00,29.4,27.8,00.0,38.6,31.1,32.0,0002.5,0019.25,0014.14,0013.34
2021-09-02 08:26:00,,0824.0,5.01,0.00,29.4,28.0,00.0,38.6,31.2,32.0,0002.5,0019.38,0014.15,0013.34
2021-09-02 08:27:00,,0824.1,4.99,0.00,29.4,28.1,00.0,38.6,31.2,32.0,0002.4,0019.44,0014.16,0013.35
2021-09-02 08:28:00,,0824.1,5.00,0.00,29.5,28.2,00.0,38.6,31.3,31.9,0002.4,0019.34,0014.14,0013.36
2021-09-02 08:29:00,,0824.1,4.99,0.00,29.5,28.3,00.0,38.6,31.3,31.8,0002.4,0019.50,0014.11,0013.34
2021-09-02 08:30:00,,0824.1,5.01,0.00,29.5,28.4,00.0,38.6,31.3,31.7,0002.3,0019.59,0014.17,0013.37
2021-09-02 08:31:00,,0824.1,5.01,0.00,29.5,28.5,00.0,38.6,31.4,31.6,0002.3,0019.07,0014.17,0013.36
2021-09-02 08:32:00,,0824.1,4.99,0.00,29.6,28.6,00.0,38.6,31.4,31.4,0002.3,0019.44,0014.17,0013.35
2021-09-02 08:33:00,,0824.1,5.00,0.00,29.6,28.6,00.0,38.6,31.4,31.4,0002.2,0019.44,0014.14,0013.32
2021-09-02 08:34:00,,0824.1,4.99,0.00,29.6,28.7,00.0,38.7,31.4,31.4,0002.1,0019.48,0014.14,0013.30
2021-09-02 08:35:00,,0824.1,5.01,0.00,29.6,28.7,00.0,38.7,31.5,31.4,0001.8,0019.84,0014.16,0013.28
2021-09-02 08:36:00,,0824.1,4.99,0.00,29.7,28.8,00.0,38.7,31.5,31.4,0001.7,0019.72,0014.11,0013.24
2021-09-02 08:37:00,,0824.1,5.01,0.00,29.7,28.8,00.0,38.7,31.5,31.4,0001.8,0019.52,0014.08,0013.23
2021-09-02 08:38:00,,0824.1,5.01,0.00,29.7,28.9,00.0,38.7,31.5,31.4,0001.8,0019.49,0014.06,0013.22
2021-09-02 08:39:00,,0824.1,4.99,0.00,29.7,28.9,00.0,38.8,31.6,31.2,0001.8,0019.79,0014.10,0013.23
2021-09-02 08:40:00,,0824.1,4.99,0.00,29.8,28.9,00.0,38.8,31.6,31.2,0001.8,0019.64,0014.14,0013.22
2021-09-02 08:41:00,,0824.1,5.00,0.00,29.8,29.0,00.0,38.8,31.7,31.2,0001.9,0019.53,0014.12,0013.20
2021-09-02 08:42:00,,0824.1,5.01,0.00,29.8,29.0,00.0,38.8,31.7,31.2,0001.8,0019.42,0014.10,0013.19
2021-09-02 08:43:00,,0824.1,5.00,0.00,29.8,29.0,00.0,38.8,31.7,31.2,0001.7,0019.10,0014.12,0013.23
2021-09-02 08:44:00,,0824.1,5.00,0.00,29.8,29.0,00.0,38.9,31.7,31.1,0001.9,0019.53,0014.16,0013.25
2021-09-02 08:45:00,,0824.1,5.01,0.00,29.8,28.7,00.0,38.9,31.6,31.1,0002.0,0019.70,0014.16,0013.28
2021-09-02 08:46:00,,0824.1,4.99,0.00,29.7,27.1,00.0,38.8,31.1,31.3,0002.2,0019.16,0014.06,0013.27
2021-09-02 08:47:00,,0824.1,5.00,0.00,29.6,26.3,00.0,38.8,30.9,31.5,0002.1,0019.33,0014.10,0013.29
2021-09-02 08:48:00,,0824.1,5.00,0.00,29.5,26.5,00.0,38.8,30.9,31.7,0002.0,0019.42,0014.09,0013.30
2021-09-02 08:49:00,,0824.1,4.99,0.00,29.5,27.0,00.0,38.7,31.0,31.8,0002.1,0019.37,0014.04,0013.27
2021-09-02 08:50:00,,0824.1,5.00,0.00,29.5,27.3,00.0,38.7,31.0,31.9,0002.1,0019.09,0014.01,0013.24
2021-09-02 08:51:00,,0824.1,5.00,0.00,29.5,27.6,00.0,38.7,31.1,31.9,0002.2,0019.15,0014.02,0013.25
2021-09-02 08:52:00,,0824.1,4.99,0.00,29.5,27.9,00.0,38.7,31.2,31.8,0002.2,0019.24,0014.00,0013.26
2021-09-02 08:53:00,,0824.1,5.01,0.00,29.5,28.1,00.0,38.7,31.2,31.8,0002.3,0019.20,0013.98,0013.25
2021-09-02 08:54:00,,0824.1,4.99,0.00,29.5,28.2,00.0,38.7,31.3,31.8,0002.4,0019.02,0013.97,0013.22
2021-09-02 08:55:00,,0824.1,5.01,0.00,29.5,28.3,00.0,38.7,31.3,31.7,0002.4,0018.69,0013.94,0013.20
2021-09-02 08:56:00,,0824.2,4.99,0.00,29.6,28.4,00.0,38.7,31.4,31.7,0002.2,0018.87,0013.95,0013.19
2021-09-02 08:57:00,,0824.2,5.00,0.00,29.6,28.5,00.0,38.7,31.4,31.7,0002.3,0018.98,0013.99,0013.17
2021-09-02 08:58:00,,0824.2,5.01,0.00,29.6,28.6,00.0,38.7,31.4,31.6,0002.3,0018.84,0013.96,0013.14
2021-09-02 08:59:00,,0824.2,4.99,0.00,29.7,28.7,00.0,38.7,31.5,31.5,0002.2,0018.84,0013.98,0013.13
